User: anonymous   Login
Location: Unspecified
(0.0000°N, 0.0000°E)
Time: 09:29:59
(UTC+00:00)
Language:

SERT 2 - Orbit

View from above orbital plane
View from above orbital plane
View from above satellite
View from above satellite

Ground track
Ground track

The orbit data is extracted from the following two-line orbital elements,

1  4327U 70009A   17295.92139591 -.00000030 +00000-0 +15459-4 0  9997
2  4327 099.3070 023.0081 0005718 079.2222 050.9757 13.58468534364424
Epoch (UTC): 22 October 2017 22:06:48
Eccentricity: 0.0005718
inclination: 99.3070°
perigee height: 1037 km
apogee height: 1045 km
right ascension of ascending node: 23.0081°
argument of perigee: 79.2222°
revolutions per day: 13.58468534
mean anomaly at epoch: 50.9757°
orbit number at epoch: 36442

The dashed part of the orbit path shows where the satellite is in the earth's shadow,  

DLR